{"data":{"norad_id":60526,"epoch":"2026-05-25T03:21:32.652864Z","epoch_age_seconds":60140,"freshness":"FRESH","line1":"1 60526U 24149BL  26145.13996126  .00018084  00000+0  40772-3 0  9997","line2":"2 60526  97.3778 230.9554 0005268  24.4470 335.7026 15.43291121 98891","mean_motion":15.43291121,"eccentricity":0.0005268,"inclination_deg":97.3778,"raan_deg":230.9554,"arg_perigee_deg":24.447,"mean_anomaly_deg":335.7026,"bstar":0.00040772,"rev_number":9889,"period_min":93.307087716991,"perigee_km":432.81400743928,"apogee_km":439.99380773951,"semimajor_km":6814.5409075894,"source":"CELESTRAK","updated_at":"2026-05-25T13:38:02.125366Z"}}